Regional Weather Roundup
Issued by NWS Upton, NY

Current Version | Previous Version | Graphics & Text | Print | Product List | Glossary Off
Versions: 1 2 3 4 5 6 7 8 9 10 11 12 13 14 15 16 17 18 19 20 21 22 23 24 25 26 27

000
ASUS41 KOKX 261609
RWROKX

REGIONAL WEATHER ROUNDUP
NATIONAL WEATHER SERVICE NEW YORK NY
1200 PM EDT MON JUN 26 2017

NOTE: "FAIR" INDICATES FEW OR NO CLOUDS BELOW 12,000 FEET WITH NO
SIGNIFICANT WEATHER AND/OR OBSTRUCTIONS TO VISIBILITY.

NYZ071-072-176-178-NJZ106-104-261700-
NEW YORK CITY METRO AREA

CITY           SKY/WX    TMP DP  RH WIND       PRES   REMARKS
Central Park   SUNNY     77  47  34 MISG      30.05F
Bronx Bot Gard   N/A     75  45  33 W3        30.03F
LaGuardia APRT NOT AVBL
Kennedy INTL   MOSUNNY   77  54  44 SW12      30.03F
Breezy Point     N/A     72 N/A N/A S6          N/A
Newark/Liberty MOSUNNY   79  47  32 W12G21    30.02F
Teterboro      SUNNY     75  48  38 W9        30.00
$$

NYZ177-179-078>081-261700-
LONG ISLAND NEW YORK

CITY           SKY/WX    TMP DP  RH WIND       PRES   REMARKS
Jones Beach      N/A     72 N/A N/A SW5G14      N/A
Matinecock PT  NOT AVBL
Farmingdale    NOT AVBL
MacArthur/ISP  NOT AVBL
Shirley        NOT AVBL
Mt Sinai Harb    N/A    N/A N/A N/A W3G9        N/A
Westhampton    NOT AVBL
East Hampton   FAIR      74  50  43 W10       30.03R
Montauk          N/A     73  52  47 W7        30.04S
$$

NYZ052-065-067-261700-
HUDSON VALLEY

CITY           SKY/WX    TMP DP  RH WIND       PRES   REMARKS
White Plains   NOT AVBL
Larchmont Harb   N/A     72 N/A N/A W9          N/A
Croton O-T Hud   N/A     73 N/A N/A NW9         N/A
Newburgh       MOSUNNY   72  55  56 W14       30.04F
Montgomery     NOT AVBL
Poughkeepsie   NOT AVBL
Albany         PTSUNNY   72  54  53 W7        30.00S
$$

NJZ001-105-106-008-010-013-015-019>022-104-261700-
NEW JERSEY

CITY           SKY/WX    TMP DP  RH WIND       PRES   REMARKS
Newark/Liberty MOSUNNY   79  47  32 W12G21    30.02F
Teterboro      SUNNY     75  48  38 W9        30.00
Caldwell       NOT AVBL
Somerville     NOT AVBL
Linden         FAIR      77  45  32 NW13G18   30.03F
Perth Amboy      N/A     73 N/A N/A W9          N/A
Sussex         NOT AVBL
Andover          N/A     73  50  44 W6        30.04F
Trenton        MOSUNNY   75  46  35 W10       30.05S
Millville      NOT AVBL
Atlantic City  MOSUNNY   79  48  33 SW10      30.06S
Wrightstown    MOSUNNY   76  49  38 W13       30.06S
Toms River     NOT AVBL
Belmar         NOT AVBL
$$

PAZ047>061-062-071-261700-
EASTERN PENNSYLVANIA

CITY           SKY/WX    TMP DP  RH WIND       PRES   REMARKS
Philadelphia   MOSUNNY   79  39  23 W12       30.06S
Allentown      NOT AVBL
Scranton       NOT AVBL
$$

CTZ002-004>006-009-010-012-RIZ004-006-007-MAZ004-011-015-261700-
SOUTHERN NEW ENGLAND
 IN CT

CITY           SKY/WX    TMP DP  RH WIND       PRES   REMARKS
Bradley INTL   PTSUNNY   75  49  39 NW7       30.00F
Hartford       MOSUNNY   75  52  44 W9        30.00F
Danbury        MOSUNNY   73  52  46 W8        30.04S
Wtrbury/Oxford MOSUNNY   72  48  43 NW8       30.04S
Bridgeport     MOSUNNY   75  52  43 MISG      30.02S
Meriden        MOSUNNY   74  51  44 SW8       30.01S
New Haven      PTSUNNY   72  55  56 SW10      30.02S
Chester        FAIR      73  55  53 S12       30.02S
Groton         SUNNY     72  53  51 SW12      30.01S
Wilimantic     MOSUNNY   76  51  41 NW10      30.01S

 IN RI

CITY           SKY/WX    TMP DP  RH WIND       PRES   REMARKS
Providence     MOSUNNY   75  53  46 NW12      30.00F
Block Island   SUNNY     73  52  47 W10       30.03S
Westerly       SUNNY     75  53  46 SW10      30.02S
 IN MA

CITY           SKY/WX    TMP DP  RH WIND       PRES   REMARKS
Boston         MOSUNNY   75  48  38 W13       29.97F
Worcester      MOSUNNY   68  49  50 W10       30.02S
Westfield      MOSUNNY   73  52  47 W7        30.00F
Provincetown   SUNNY     71  53  52 NW8       29.99F
Nantucket      SUNNY     75  53  46 VRB7      30.01R
$$

ANZ330-335-338-340-345-350-353-355-261700-
COASTAL MARINE OBSERVATIONS


STATION/POSITION TIME  SKY/WX   TEMP    WIND        PRES    VSBY  WAVE
                                AIR SEA DIR/SP/G                  HT/PER
                 (UTC)          (F)     (DEG/KT/KT) (MB)    (MI)  (FT/S)
NY HARB ENTRANCE 1450            68 68  260/  4/  6 1017.3          2/ 6
20 S FIRE ISLAND 1550            68 70  250/  6/  8 1017.1          2/ 8
GREAT SOUTH BAY  1530            70 77  220/ 14/ 14   N/A
23 SSW MONTAUK P 1450            65 65              1017.1          2/ 7
15 E BARNEGAT LI 1530               67                N/A           2/ 6
HUDSON CANYON    1450            70 69     CALM     1017.5          2/ 7
KINGS POINT      1542            72 66  340/  1/  5 1016.7
EXECUTION ROCKS  NOT AVBL
CENTRAL LI SOUND NOT AVBL
EASTERN LI SOUND NOT AVBL
ROBBINS REEF     1548                   260/  8/ 12 1017.4
$$


>>>>>>>>>>>>>>>>>>>>>>>>>>>> KEY <<<<<<<<<<<<<<<<<<<<<<<<<<<
>                                                          <
>     SKY/WX - Sky Condition/Present Weather               <
>     TMP    - Temperature in Fahrenheit                   <
>     DP     - Dew Point in Fahrenheit                     <
>     RH     - Relative Humidity in Percent                <
>     WIND   - Direction (from) and Speed in MPH           <
>     PRES   - Mean Sea Level Pressure (inches of Hg)      <
>     WCI    - Wind Chill Index                            <
>     VSB    - VISIBILITY IN MILES                         <
>     HX     - HEAT INDEX                                  <
>     TC     - TEMPERATURE IN CELSIUS                      <
>     VRB    - VARIABLE WIND DIRECTION                     <
>                                                          <
>>>>>>>>>>>>>>>>>>>>>>>>>>>> KEY <<<<<<<<<<<<<<<<<<<<<<<<<<<




USA.gov is the U.S. government's official web portal to all federal, state and local government web resources and services.